Weather in Mezhozernyy

Russia / Saint-Petersburg and Leningrad Oblast     58°37′47″N   29°49′43″E
temp.,
°C
wind,
m/s
gust,
m/s
humid.,
%
clouds,
%
prec.,
mm/h
press.,
hPa
HPBL,
m
11 april, sun
sun1100:00−1sw28864 0.0 1019219
03:00−1sw27865 0.0 1021167
06:00−1sw27835 0.0 1023142
09:00+4sw35556 0.0 1025381
12:00+8sw23335 0.0 10261237
15:00+9s233445 0.0 10271591
18:00+9se245173 0.0 10271297
21:00+6ese387891 0.0 1027232
12 april, mon
mon1200:00+6se31083100 0.0 1027356
03:00+5se399685 0.0 1027231
06:00+5sse31194100 0.0 1026250
09:00+9s41471100 0.0 1026495
12:00+14s6104912 0.0 10251045
15:00+16s694211 0.0 10241480
18:00+15sse4105071 0.0 10221360
21:00+9sse21074100 0.0 1022187
13 april, tue
tue1300:00+7sse3117914 0.0 1021220
03:00+5sse38855 0.0 1020144
06:00+5s2584100 0.0 1020112
09:00+8s2670100 0.0 1019218
12:00+9ssw2869100 0.0 1020396
15:00+13sw3653100 0.0 10201173
18:00+8w3793100 0.3 1021452
21:00+5nw3791100 0.6 1022460
14 april, wed
wed1400:00+5nw1593100 0.1 1022358
03:00+4nw1294100 0.3 1022110
06:00+3nnw2596100 0.0 1022202
09:00+4n3475100 0.0 1023491
12:00+5n3463100 0.0 1024788
15:00+7n3455100 0.0 10241084
18:00+7n3452100 0.0 10241108
21:00+4n3759100 0.0 1025350
15 april, thu
thu1500:00+2n3871100 0.0 1026293
03:00+1n2680100 0.0 1026151
06:00−1n2683100 0.0 1026144
09:00+4nne365861 0.0 1027559
12:00+8nne464169 0.0 10271279
15:00+10nne56360 0.0 10271536
18:00+9nne47435 0.0 10271613
21:00+4ne412610 0.0 1030585